Regional Weather Roundup
Issued by NWS Cleveland, OH

Home | Current Version | Previous Version | Text Only | Print | Product List | Glossary Off
Versions: 1 2 3 4 5 6 7 8 9 10 11 12 13 14 15 16 17 18 19 20 21 22 23 24 25 26 27 28 29 30 31 32 33 34 35 36 37 38 39 40 41 42 43 44 45 46 47 48 49 50

000
ASUS41 KCLE 222312
RWRCLE
OHIO REGIONAL WEATHER ROUNDUP
NATIONAL WEATHER SERVICE WILMINGTON, OH
700 PM EDT WED MAR 22 2017

NOTE: "FAIR" INDICATES FEW OR NO CLOUDS BELOW 12,000 FEET WITH NO
SIGNIFICANT WEATHER AND/OR OBSTRUCTIONS TO VISIBILITY.

OHZ001>008-015>018-024>027-034-035-043-044-230000-
   NORTHWEST OHIO

CITY           SKY/WX    TMP DP  RH WIND       PRES   REMARKS
DEFIANCE       FAIR      34  12  40 CALM      30.52F
FINDLAY        FAIR      34  12  40 NE12G18   30.52S WCI  25
TOLEDO EXPRESS FAIR      34  14  43 SE5       30.53S WCI  30
TOLEDO EXEC    FAIR      32  14  47 E7        30.55F WCI  26
LIMA           FAIR      34  17  50 NE12      30.50S WCI  25
$$

OHZ009>014-019>023-028>033-038-089-230000-
   NORTHEAST OHIO

CITY           SKY/WX    TMP DP  RH WIND       PRES   REMARKS
CLE-HOPKINS    FAIR      29  12  49 NW12      30.58R WCI  19
CLE-LAKEFRONT  FAIR      28  13  53 NW5       30.55S WCI  23
CUY CO. ARPT   PTCLDY    28  14  54 NE7       30.54F WCI  21
LORAIN-ELYRIA  FAIR      28  12  51 NE10      30.55S WCI  19
ASHTABULA      FAIR      26   8  46 NW7       30.52F WCI  18
AKRON-CANTON   FAIR      31   9  39 N9        30.49R WCI  23
WOOSTER        FAIR      29  13  51 N12       30.51R WCI  19
MANSFIELD      FAIR      29  16  58 N8        30.50R WCI  21
YOUNGSTOWN     FAIR      28   9  44 N10       30.49R WCI  19
$$

OHZ042-051>053-060>062-070>072-077>081-230000-
  SOUTHWEST OHIO

CITY           SKY/WX    TMP DP  RH WIND       PRES   REMARKS
CINC-COVINGTON FAIR      40  16  37 NE12      30.43S
CINC-LUNKEN    FAIR      41  22  46 NE9       30.47S
HAMILTON       FAIR      40  20  44 E12       30.47S
DAYTON         FAIR      36  16  44 E10       30.47S
WRIGHT-PAT AFB FAIR      38  15  39 NE14      30.47S
DAYTON GENERAL FAIR      38  18  44 NE13      30.45R
WILMINGTON     FAIR      36  21  54 NE12      30.45S
$$

OHZ036-037-039>041-045>050-054>059-063>069-073>076-082>088-230000-
  CENTRAL AND SOUTHEAST OHIO

CITY           SKY/WX    TMP DP  RH WIND       PRES   REMARKS
COLUMBUS       FAIR      39  14  36 N12       30.48R
OSU AIRPORT    FAIR      35  17  47 N13       30.48R WCI  26
BOLTON FIELD   CLEAR     37  18  44 N14       30.48R
RICKENBACK AFB FAIR      38  15  39 NE8       30.47S
NEWARK         FAIR      38  12  34 N12       30.47R
MARION         FAIR      32  15  49 NE12      30.51S WCI  23
LANCASTER      FAIR      41  18  39 N12       30.47R
ZANESVILLE     FAIR      38  12  34 N9        30.47R
NEW PHILLY     FAIR      36  11  35 N9        30.49R
$$




USA.gov is the U.S. government's official web portal to all federal, state and local government web resources and services.